TimeICT,TemperatureF,Dew PointF,Humidity,Sea Level PressureIn,VisibilityMPH,Wind Direction,Wind SpeedMPH,Gust SpeedMPH,PrecipitationIn,Events,Conditions,WindDirDegrees,DateUTC
12:00 AM,80.6,77.0,89,29.83,5.0,Variable,1.2,-,N/A,,Mostly Cloudy,0,2013-04-01 17:00:00
12:30 AM,78.8,77.0,94,29.83,5.0,Calm,Calm,-,N/A,,Mostly Cloudy,0,2013-04-01 17:30:00
1:00 AM,81,79,91,29.79,6,Calm,Calm,,,,Partly Cloudy,,2013-04-01 18:00:00
1:00 AM,78.8,77.0,94,29.80,5.0,Calm,Calm,-,N/A,,Mostly Cloudy,0,2013-04-01 18:00:00
1:30 AM,78.8,77.0,94,29.80,5.0,Calm,Calm,-,N/A,,Mostly Cloudy,0,2013-04-01 18:30:00
2:00 AM,78.8,77.0,94,29.80,5.0,Calm,Calm,-,N/A,,Mostly Cloudy,0,2013-04-01 19:00:00
2:30 AM,78.8,77.0,94,29.77,5.0,Variable,1.2,-,N/A,,Mostly Cloudy,0,2013-04-01 19:30:00
3:00 AM,78.8,77.0,94,29.77,5.0,Calm,Calm,-,N/A,,Mostly Cloudy,0,2013-04-01 20:00:00
3:30 AM,78.8,77.0,94,29.77,5.0,Calm,Calm,-,N/A,,Mostly Cloudy,0,2013-04-01 20:30:00
4:00 AM,78.8,77.0,94,29.77,5.0,Variable,1.2,-,N/A,,Mostly Cloudy,0,2013-04-01 21:00:00
4:30 AM,78.8,77.0,94,29.77,5.0,Calm,Calm,-,N/A,,Mostly Cloudy,0,2013-04-01 21:30:00
5:00 AM,78.8,75.2,89,29.77,5.0,Calm,Calm,-,N/A,,Mostly Cloudy,0,2013-04-01 22:00:00
5:30 AM,78.8,77.0,94,29.80,5.0,Calm,Calm,-,N/A,,Mostly Cloudy,0,2013-04-01 22:30:00
6:00 AM,78.8,77.0,94,29.80,5.0,Calm,Calm,-,N/A,,Mostly Cloudy,0,2013-04-01 23:00:00
6:30 AM,78.8,77.0,94,29.80,5.0,Variable,2.3,-,N/A,,Mostly Cloudy,0,2013-04-01 23:30:00
7:00 AM,79,77,92,29.78,6,Calm,Calm,,,,Scattered Clouds,,2013-04-02 00:00:00
7:00 AM,80.6,77.0,89,29.83,5.0,ENE,4.6,-,N/A,,Mostly Cloudy,60,2013-04-02 00:00:00
7:30 AM,82.4,77.0,84,29.83,5.6,Variable,2.3,-,N/A,,Mostly Cloudy,0,2013-04-02 00:30:00
8:00 AM,86.0,77.0,74,29.83,5.6,Variable,1.2,-,N/A,,Mostly Cloudy,0,2013-04-02 01:00:00
8:30 AM,87.8,77.0,70,29.83,6.2,East,8.1,-,N/A,,Mostly Cloudy,80,2013-04-02 01:30:00
9:00 AM,87.8,75.2,66,29.86,6.2,East,9.2,-,N/A,,Mostly Cloudy,90,2013-04-02 02:00:00
9:30 AM,89.6,73.4,59,29.86,6.2,East,11.5,-,N/A,,Mostly Cloudy,100,2013-04-02 02:30:00
10:00 AM,89.6,73.4,59,29.86,6.2,East,16.1,-,N/A,,Mostly Cloudy,90,2013-04-02 03:00:00
10:30 AM,89.6,73.4,59,29.86,6.2,East,10.4,-,N/A,,Mostly Cloudy,90,2013-04-02 03:30:00
11:00 AM,91.4,73.4,55,29.86,6.2,East,13.8,-,N/A,,Mostly Cloudy,80,2013-04-02 04:00:00
11:30 AM,93.2,73.4,52,29.86,6.2,East,13.8,-,N/A,,Mostly Cloudy,90,2013-04-02 04:30:00
12:00 PM,93.2,71.6,49,29.83,6.2,East,11.5,-,N/A,,Mostly Cloudy,90,2013-04-02 05:00:00
12:30 PM,93.2,71.6,49,29.83,6.2,East,13.8,-,N/A,,Mostly Cloudy,90,2013-04-02 05:30:00
1:00 PM,94,74,44,29.78,6,ESE,3.5,,,,Mist,110,2013-04-02 06:00:00
1:00 PM,93.2,71.6,49,29.80,6.2,East,11.5,-,N/A,,Mostly Cloudy,80,2013-04-02 06:00:00
1:30 PM,95.0,69.8,44,29.77,6.2,East,9.2,-,N/A,,Mostly Cloudy,90,2013-04-02 06:30:00
2:00 PM,95.0,69.8,44,29.77,6.2,ENE,11.5,-,N/A,,Mostly Cloudy,60,2013-04-02 07:00:00
2:30 PM,95.0,69.8,44,29.74,6.2,East,8.1,-,N/A,,Mostly Cloudy,100,2013-04-02 07:30:00
3:00 PM,95.0,77.0,56,29.74,6.2,Variable,4.6,-,N/A,,Mostly Cloudy,0,2013-04-02 08:00:00
3:30 PM,91.4,77.0,63,29.74,6.2,WNW,5.8,-,N/A,,Mostly Cloudy,300,2013-04-02 08:30:00
4:00 PM,89.6,77.0,66,29.74,6.2,West,11.5,-,N/A,,Mostly Cloudy,270,2013-04-02 09:00:00
4:30 PM,89.6,77.0,66,29.71,6.2,WSW,9.2,-,N/A,,Mostly Cloudy,250,2013-04-02 09:30:00
5:00 PM,89.6,77.0,66,29.71,6.2,West,8.1,-,N/A,,Mostly Cloudy,260,2013-04-02 10:00:00
5:30 PM,87.8,77.0,70,29.71,6.2,West,11.5,-,N/A,,Mostly Cloudy,270,2013-04-02 10:30:00
6:00 PM,87.8,77.0,70,29.71,6.2,West,5.8,-,N/A,,Mostly Cloudy,280,2013-04-02 11:00:00
6:30 PM,86.0,77.0,74,29.74,6.2,WNW,4.6,-,N/A,,Mostly Cloudy,300,2013-04-02 11:30:00
7:00 PM,87,78,69,29.73,6,NW,5.8,,,,Mist,320,2013-04-02 12:00:00
7:00 PM,86.0,77.0,74,29.74,6.2,WNW,6.9,-,N/A,,Mostly Cloudy,290,2013-04-02 12:00:00
7:30 PM,86.0,77.0,74,29.74,6.2,NNW,5.8,-,N/A,,Mostly Cloudy,330,2013-04-02 12:30:00
8:00 PM,84.2,75.2,74,29.77,6.2,Calm,Calm,-,N/A,,Mostly Cloudy,0,2013-04-02 13:00:00
8:30 PM,84.2,75.2,74,29.77,6.2,North,3.5,-,N/A,,Mostly Cloudy,350,2013-04-02 13:30:00
9:00 PM,84.2,75.2,74,29.80,6.2,Variable,2.3,-,N/A,,Mostly Cloudy,0,2013-04-02 14:00:00
9:30 PM,84.2,75.2,74,29.80,6.2,Variable,2.3,-,N/A,,Mostly Cloudy,0,2013-04-02 14:30:00
10:00 PM,84.2,75.2,74,29.80,6.2,Calm,Calm,-,N/A,,Mostly Cloudy,0,2013-04-02 15:00:00
10:30 PM,84.2,75.2,74,29.80,5.0,Calm,Calm,-,N/A,,Mostly Cloudy,0,2013-04-02 15:30:00
11:00 PM,84.2,75.2,74,29.80,5.0,WNW,5.8,-,N/A,,Mostly Cloudy,290,2013-04-02 16:00:00
11:30 PM,82.4,75.2,79,29.80,5.0,Calm,Calm,-,N/A,,Mostly Cloudy,0,2013-04-02 16:30:00